EW8578 Weather Reports


time (UTC)temp
C
wind
direction
speed
KPH
gust
KPH
rain 1hr
cm
rain 24hr
cm
rain mn
cm
humidity
%
barometer
mb
20260506202041 4 107 3.2 6.4 0.00 0.00 0.00 73 1015.1
20260506201541 4 63 1.6 6.4 0.00 0.00 0.00 73 1015.2
20260506201043 5 267 0.0 6.4 0.00 0.00 0.00 74 1015.2
20260506200541 4 279 1.6 9.7 0.00 0.00 0.00 73 1015.3
20260506200051 4 57 1.6 12.9 0.00 0.00 0.00 72 1015.3
20260506195540 4 103 0.0 4.8 0.00 0.00 0.00 71 1015.2
20260506194547 5 84 1.6 6.4 0.00 0.00 0.00 70 1015.1
20260506194040 5 84 3.2 6.4 0.00 0.00 0.00 70 1015.1
20260506193543 5 63 3.2 4.8 0.00 0.00 0.00 70 1015.1
20260506193039 5 90 3.2 9.7 0.00 0.00 0.00 69 1015.1
20260506192538 5 77 4.8 9.7 0.00 0.00 0.00 68 1015.1
20260506192041 5 66 3.2 9.7 0.00 0.00 0.00 68 1015.0
20260506191538 5 68 3.2 9.7 0.00 0.00 0.00 67 1015.0
20260506191037 5 65 3.2 9.7 0.00 0.00 0.00 66 1014.9
20260506190538 5 34 3.2 9.7 0.00 0.00 0.00 66 1014.9
20260506190039 5 28 3.2 9.7 0.00 0.00 0.00 66 1014.9
20260506185538 6 26 4.8 9.7 0.00 0.00 0.00 66 1014.8
20260506184540 6 19 4.8 16.1 0.00 0.00 0.00 69 1014.8
20260506184038 6 347 8.0 16.1 0.00 0.00 0.00 69 1014.8
20260506183538 6 13 4.8 14.5 0.00 0.00 0.00 69 1014.8
20260506183045 6 11 3.2 16.1 0.00 0.00 0.00 68 1014.7
20260506182537 6 24 6.4 16.1 0.00 0.00 0.00 68 1014.7
20260506182039 6 13 9.7 16.1 0.00 0.00 0.00 69 1014.7
20260506181537 6 9 6.4 14.5 0.00 0.00 0.00 65 1014.6
20260506181037 6 350 6.4 14.5 0.00 0.00 0.00 65 1014.6
20260506180539 6 360 6.4 12.9 0.00 0.00 0.00 64 1014.5
20260506180036 6 360 3.2 12.9 0.00 0.00 0.00 63 1014.5
20260506175539 6 360 6.4 12.9 0.00 0.00 0.00 62 1014.5
20260506174536 7 355 4.8 9.7 0.00 0.00 0.00 62 1014.5
20260506174036 7 360 3.2 9.7 0.00 0.00 0.00 60 1014.5
20260506173537 7 355 4.8 14.5 0.00 0.00 0.00 62 1014.5
20260506173036 7 360 4.8 14.5 0.00 0.00 0.00 64 1014.5
20260506172535 6 349 6.4 14.5 0.00 0.00 0.00 64 1014.4
20260506172035 6 355 9.7 14.5 0.00 0.00 0.00 65 1014.5
20260506171543 6 348 6.4 12.9 0.00 0.00 0.00 65 1014.5
20260506171035 6 323 6.4 14.5 0.00 0.00 0.00 64 1014.4
20260506170536 6 5 6.4 14.5 0.00 0.00 0.00 62 1014.4
20260506170042 6 350 8.0 16.1 0.00 0.00 0.00 62 1014.4
20260506165538 7 339 8.0 16.1 0.00 0.00 0.00 64 1014.4
20260506164544 7 5 6.4 12.9 0.00 0.00 0.00 62 1014.3
20260506164034 7 360 4.8 14.5 0.00 0.00 0.00 59 1014.4
20260506163532 8 355 8.0 14.5 0.00 0.00 0.00 59 1014.3
20260506163033 8 5 6.4 12.9 0.00 0.00 0.00 56 1014.3
20260506162534 8 29 3.2 12.9 0.00 0.00 0.00 59 1014.3
20260506162032 7 9 4.8 12.9 0.00 0.00 0.00 59 1014.3
20260506161539 7 40 4.8 9.7 0.00 0.00 0.00 58 1014.3
20260506161032 7 17 3.2 9.7 0.00 0.00 0.00 59 1014.3
20260506160534 7 10 3.2 14.5 0.00 0.03 0.00 60 1014.2
20260506160042 7 13 3.2 14.5 0.00 0.03 0.00 60 1014.2
20260506155532 8 23 4.8 14.5 0.00 0.03 0.00 60 1014.3
20260506154533 8 31 4.8 14.5 0.00 0.03 0.00 60 1014.4
20260506154033 8 23 4.8 14.5 0.00 0.03 0.00 59 1014.3
20260506153533 8 30 4.8 9.7 0.00 0.03 0.00 57 1014.3
20260506153032 8 5 1.6 6.4 0.00 0.03 0.00 55 1014.3
20260506152531 8 11 3.2 9.7 0.00 0.03 0.00 57 1014.3
20260506152031 8 19 3.2 9.7 0.00 0.03 0.00 57 1014.3
20260506151536 8 337 1.6 8.0 0.00 0.03 0.00 58 1014.3
20260506151030 8 23 4.8 8.0 0.00 0.03 0.00 61 1014.4
20260506150530 8 355 1.6 8.0 0.00 0.03 0.00 58 1014.4
20260506150032 8 5 3.2 8.0 0.00 0.03 0.00 60 1014.4
20260506145528 8 355 3.2 14.5 0.00 0.03 0.00 63 1014.4
20260506144529 7 360 1.6 14.5 0.00 0.03 0.00 62 1014.5
20260506144038 7 38 1.6 14.5 0.00 0.03 0.00 62 1014.5
20260506143528 7 37 0.0 8.0 0.00 0.03 0.00 58 1014.5
20260506143041 7 360 1.6 9.7 0.00 0.03 0.00 60 1014.6
20260506142528 7 55 3.2 9.7 0.00 0.03 0.00 59 1014.6
20260506142028 7 36 3.2 9.7 0.00 0.03 0.00 61 1014.6
20260506141527 7 5 1.6 8.0 0.00 0.03 0.00 57 1014.6
20260506141029 7 88 1.6 8.0 0.00 0.03 0.00 57 1014.5
20260506140527 7 173 0.0 8.0 0.00 0.03 0.00 58 1014.4
20260506140033 7 196 3.2 9.7 0.00 0.03 0.00 59 1014.3
20260506135528 7 193 3.2 11.3 0.00 0.03 0.00 57 1014.4
20260506134527 8 204 8.0 11.3 0.00 0.03 0.00 61 1014.4
20260506134026 8 221 3.2 9.7 0.00 0.03 0.00 62 1014.4
20260506133526 7 211 3.2 9.7 0.00 0.03 0.00 61 1014.5
20260506133026 8 225 6.4 11.3 0.00 0.03 0.00 62 1014.5
20260506132524 7 197 3.2 8.0 0.00 0.03 0.00 65 1014.4
20260506132024 7 202 4.8 8.0 0.00 0.03 0.00 63 1014.6
20260506131526 8 226 3.2 11.3 0.00 0.03 0.00 66 1014.6
20260506131022 7 188 4.8 11.3 0.00 0.03 0.00 68 1014.6
20260506130523 7 195 6.4 11.3 0.00 0.03 0.00 67 1014.5
20260506130021 7 232 4.8 9.7 0.00 0.03 0.00 67 1014.5
20260506125519 7 208 6.4 9.7 0.00 0.03 0.00 68 1014.5
20260506124519 7 204 6.4 11.3 0.00 0.03 0.00 70 1014.5
20260506124018 7 229 8.0 11.3 0.00 0.03 0.00 71 1014.4
20260506123518 7 227 4.8 9.7 0.00 0.03 0.00 71 1014.5
20260506123018 7 229 4.8 8.0 0.00 0.03 0.00 72 1014.5
20260506122517 7 229 4.8 8.0 0.00 0.03 0.00 70 1014.4
20260506122016 6 211 4.8 6.4 0.00 0.03 0.00 72 1014.5
20260506121514 6 194 3.2 6.4 0.00 0.03 0.00 71 1014.5
20260506121015 6 226 4.8 6.4 0.00 0.03 0.00 73 1014.5
20260506120612 6 211 4.8 6.4 0.00 0.05 0.00 74 1014.5
20260506120012 6 230 4.8 6.4 0.00 0.05 0.00 75 1014.5
20260506115512 6 211 3.2 6.4 0.00 0.05 0.00 74 1014.4
20260506114512 6 253 1.6 4.8 0.00 0.05 0.00 75 1014.4
20260506114010 6 250 1.6 4.8 0.00 0.05 0.00 75 1014.5
20260506113512 6 239 1.6 4.8 0.00 0.05 0.00 76 1014.5
20260506113009 6 246 3.2 6.4 0.00 0.05 0.00 76 1014.6
20260506112509 6 229 3.2 6.4 0.00 0.05 0.00 77 1014.6
20260506112008 6 222 3.2 6.4 0.00 0.05 0.00 78 1014.5
20260506111509 6 223 3.2 4.8 0.00 0.05 0.00 78 1014.5
20260506111007 6 222 3.2 4.8 0.00 0.05 0.00 79 1014.5
20260506110515 6 241 1.6 4.8 0.00 0.13 0.00 79 1014.5
20260506110007 6 232 1.6 4.8 0.00 0.13 0.00 80 1014.6
20260506105505 5 261 1.6 4.8 0.00 0.13 0.00 80 1014.6
20260506104505 5 313 1.6 6.4 0.00 0.13 0.00 81 1014.7
20260506104004 5 306 3.2 6.4 0.00 0.13 0.00 82 1014.6
20260506103504 5 311 1.6 4.8 0.00 0.13 0.00 82 1014.6
20260506103006 5 44 1.6 6.4 0.00 0.13 0.00 82 1014.7
20260506102503 5 5 3.2 6.4 0.00 0.13 0.00 83 1014.7
20260506102003 5 349 1.6 4.8 0.00 0.13 0.00 84 1014.7
20260506101503 5 310 1.6 4.8 0.00 0.13 0.00 85 1014.6
20260506101003 5 323 1.6 4.8 0.00 0.13 0.00 86 1014.5
20260506100502 5 328 1.6 8.0 0.00 0.13 0.00 85 1014.5
20260506100001 5 12 3.2 8.0 0.00 0.13 0.00 85 1014.6
20260506095600 5 349 3.2 8.0 0.00 0.13 0.00 86 1014.6
20260506095502 5 5 1.6 8.0 0.00 0.13 0.00 86 1014.6
20260506095201 4 5 3.2 8.0 0.00 0.13 0.00 86 1014.7
20260506094501 4 360 4.8 8.0 0.00 0.13 0.00 87 1014.7
20260506094100 4 360 3.2 6.4 0.00 0.13 0.00 87 1014.6
20260506093600 4 355 3.2 6.4 0.00 0.13 0.00 87 1014.7
20260506093105 3 355 3.2 6.4 0.00 0.13 0.00 86 1014.7
20260506092559 3 5 3.2 6.4 0.00 0.13 0.00 86 1014.7
20260506092100 3 337 3.2 6.4 0.00 0.13 0.00 86 1014.7
20260506091559 3 346 1.6 6.4 0.00 0.13 0.00 86 1014.8
20260506091101 4 13 1.6 8.0 0.00 0.13 0.00 87 1014.8
20260506090604 3 5 3.2 8.0 0.00 0.13 0.00 87 1014.7
20260506085557 3 14 1.6 6.4 0.00 0.13 0.00 88 1014.8
20260506085158 3 324 3.2 6.4 0.00 0.13 0.00 87 1014.7
20260506084557 3 336 1.6 4.8 0.00 0.13 0.00 87 1014.7
20260506084057 2 11 1.6 3.2 0.00 0.13 0.00 87 1014.8
20260506083556 2 36 1.6 8.0 0.00 0.13 0.00 86 1014.8
20260506083057 2 360 1.6 9.7 0.00 0.13 0.00 85 1014.9
20260506082558 3 5 4.8 12.9 0.00 0.13 0.00 85 1014.8
20260506082100 3 322 6.4 12.9 0.00 0.13 0.00 85 1014.9
20260506081556 3 288 6.4 16.1 0.00 0.13 0.00 84 1014.9
20260506081055 3 275 9.7 17.7 0.00 0.13 0.00 84 1014.9
20260506080555 3 229 9.7 20.9 0.00 0.15 0.00 84 1014.9
20260506073051 5 199 6.4 14.5 0.00 0.15 0.00 78 1014.0
20260506072551 4 194 6.4 14.5 0.00 0.15 0.00 78 1014.0
20260506072052 4 205 8.0 12.9 0.00 0.15 0.00 78 1014.0
20260506071605 4 185 6.4 12.9 0.00 0.15 0.00 79 1014.0
20260506071052 4 203 6.4 12.9 0.00 0.15 0.00 79 1013.9
20260506070549 4 199 6.4 12.9 0.00 0.15 0.00 79 1014.0
20260506062043 3 170 3.2 11.3 0.00 0.15 0.00 81 1013.8
20260506061543 3 155 3.2 6.4 0.00 0.15 0.00 81 1013.9
20260506061041 3 166 1.6 8.0 0.00 0.15 0.00 82 1013.9
20260506060540 3 177 3.2 8.0 0.00 0.15 0.00 82 1013.9
20260506051037 2 180 3.2 4.8 0.00 0.15 0.00 83 1013.7
20260506050537 2 148 1.6 4.8 0.00 0.15 0.00 84 1013.7
20260506044536 2 113 1.6 3.2 0.00 0.15 0.00 84 1014.0
20260506044036 1 76 0.0 3.2 0.00 0.15 0.00 83 1013.9
20260506043540 1 76 0.0 4.8 0.00 0.15 0.00 83 1013.9
20260506043036 2 80 1.6 4.8 0.00 0.15 0.00 82 1013.8
20260506042536 2 111 0.0 6.4 0.00 0.15 0.00 83 1013.7
20260506042040 2 171 1.6 6.4 0.00 0.15 0.00 83 1013.7
20260506041546 2 171 3.2 8.0 0.00 0.15 0.00 84 1013.6
20260506041035 2 157 3.2 4.8 0.00 0.15 0.00 84 1013.6
20260506040534 2 153 1.6 4.8 0.00 0.15 0.00 84 1013.7
20260506040034 2 152 1.6 4.8 0.00 0.15 0.00 84 1013.7
20260506035536 2 151 1.6 4.8 0.00 0.15 0.00 84 1013.6
20260506035135 2 175 1.6 4.8 0.00 0.15 0.00 84 1013.6
20260506034534 2 155 1.6 4.8 0.00 0.15 0.00 85 1013.7
20260506034034 2 171 0.0 6.4 0.00 0.15 0.00 85 1013.7
20260506033537 2 155 1.6 4.8 0.00 0.15 0.00 85 1013.7
20260506033034 2 160 0.0 4.8 0.00 0.15 0.00 86 1013.8
20260506032534 2 153 0.0 3.2 0.00 0.15 0.00 86 1013.8
20260506032033 1 153 1.6 4.8 0.00 0.15 0.00 86 1013.8
20260506031534 1 144 1.6 4.8 0.00 0.15 0.00 86 1013.8
20260506031034 1 119 3.2 6.4 0.00 0.15 0.00 86 1013.7
20260506030535 1 98 3.2 6.4 0.00 0.15 0.00 85 1013.8
20260506030034 1 104 3.2 6.4 0.00 0.15 0.00 86 1013.9
20260506025535 1 96 3.2 6.4 0.00 0.15 0.00 86 1013.9
20260506025134 1 96 3.2 6.4 0.00 0.15 0.00 85 1013.9
20260506024537 1 102 3.2 6.4 0.00 0.15 0.00 85 1013.9
20260506024032 1 94 3.2 6.4 0.00 0.15 0.00 85 1013.9
20260506023532 1 94 3.2 6.4 0.00 0.15 0.00 84 1013.9
20260506023032 1 98 3.2 6.4 0.00 0.15 0.00 84 1013.9
20260506022530 1 94 3.2 6.4 0.00 0.15 0.00 84 1013.9
20260506022030 1 98 3.2 6.4 0.00 0.15 0.00 83 1014.0
20260506021530 2 106 3.2 6.4 0.00 0.15 0.00 83 1014.0
20260506021030 2 98 3.2 4.8 0.00 0.15 0.00 82 1013.9
20260506020529 2 136 3.2 4.8 0.00 0.15 0.00 82 1013.9
20260506020030 2 103 1.6 4.8 0.00 0.15 0.00 82 1013.9
20260506015532 2 115 3.2 6.4 0.00 0.15 0.00 82 1013.9
20260506015130 2 136 3.2 4.8 0.00 0.15 0.00 82 1014.0
20260506014542 2 109 1.6 4.8 0.00 0.15 0.00 82 1014.0
20260506014028 2 344 1.6 6.4 0.00 0.15 0.00 82 1014.2
20260506013527 2 325 1.6 6.4 0.00 0.15 0.00 82 1014.2
20260506013029 1 110 1.6 4.8 0.00 0.15 0.00 81 1014.2
20260506012525 1 80 0.0 6.4 0.00 0.15 0.00 80 1014.1
20260506012024 1 86 1.6 6.4 0.00 0.15 0.00 80 1014.0
20260506011526 1 96 3.2 6.4 0.00 0.15 0.00 80 1014.0
20260506011023 1 104 4.8 6.4 0.00 0.15 0.00 80 1013.9
20260506010523 1 90 3.2 6.4 0.00 0.15 0.00 79 1013.8
20260506010027 1 107 3.2 6.4 0.00 0.15 0.00 78 1013.9
20260506005521 1 89 3.2 6.4 0.00 0.15 0.00 79 1013.9
20260506005121 1 98 4.8 9.7 0.00 0.15 0.00 79 1013.8
20260506004534 1 109 4.8 9.7 0.00 0.15 0.00 79 1013.8
20260506004021 1 164 3.2 11.3 0.00 0.15 0.00 79 1013.8
20260506003521 1 108 6.4 11.3 0.00 0.15 0.00 79 1013.7
20260506003020 1 97 6.4 11.3 0.00 0.15 0.00 80 1013.7
20260506002519 1 95 6.4 11.3 0.00 0.15 0.00 80 1013.7
20260506002019 1 93 6.4 11.3 0.00 0.15 0.00 80 1013.8
20260506001518 1 90 6.4 11.3 0.00 0.15 0.00 81 1013.8
20260506001018 1 90 6.4 11.3 0.00 0.15 0.00 81 1014.0
20260506000516 1 109 6.4 9.7 0.00 0.15 0.15 81 1014.0
20260506000019 1 96 4.8 9.7 0.00 0.15 0.15 81 1014.0
20260505235516 1 101 6.4 9.7 0.00 0.15 0.15 81 1014.0
20260505235116 1 117 6.4 9.7 0.00 0.15 0.15 81 1014.1
20260505234518 1 96 6.4 9.7 0.00 0.15 0.15 81 1014.1
20260505234014 1 103 6.4 9.7 0.00 0.15 0.15 81 1014.0
20260505233516 1 107 4.8 9.7 0.00 0.15 0.15 81 1014.0
20260505233013 1 105 6.4 9.7 0.00 0.15 0.15 82 1014.0
20260505232514 1 98 4.8 11.3 0.00 0.15 0.15 82 1014.0
20260505232012 1 98 6.4 11.3 0.00 0.15 0.15 82 1014.0
20260505231612 1 106 4.8 11.3 0.00 0.15 0.15 82 1014.0
20260505231011 1 90 4.8 9.7 0.00 0.15 0.15 81 1013.9
20260505230516 1 96 4.8 11.3 0.00 0.15 0.15 81 1013.9
20260505230015 1 100 6.4 11.3 0.00 0.15 0.15 81 1013.9
20260505225511 1 88 4.8 11.3 0.00 0.15 0.15 81 1014.0
20260505225114 2 80 4.8 9.7 0.00 0.15 0.15 82 1014.0
20260505224514 1 101 4.8 9.7 0.00 0.15 0.15 82 1014.0
20260505224013 1 103 4.8 9.7 0.00 0.15 0.15 81 1014.0
20260505223517 1 109 4.8 9.7 0.00 0.15 0.15 81 1014.0
20260505223012 1 109 3.2 6.4 0.00 0.15 0.15 81 1014.0
20260505222512 2 101 3.2 9.7 0.00 0.15 0.15 80 1014.0
20260505222012 2 113 4.8 9.7 0.00 0.15 0.15 80 1014.0
20260505221511 2 111 4.8 11.3 0.00 0.15 0.15 80 1014.0
20260505221012 2 105 4.8 11.3 0.00 0.15 0.15 81 1014.0
20260505220510 2 94 6.4 8.0 0.00 0.15 0.15 81 1013.9
20260505220023 2 103 6.4 9.7 0.00 0.15 0.15 81 1014.0
20260505215512 2 101 4.8 9.7 0.00 0.15 0.15 81 1013.9
20260505215109 2 113 4.8 9.7 0.00 0.15 0.15 80 1013.9
20260505214513 2 108 3.2 9.7 0.00 0.15 0.15 80 1013.8
20260505214008 2 107 6.4 9.7 0.00 0.15 0.15 80 1013.7
20260505213508 2 105 4.8 9.7 0.00 0.15 0.15 80 1013.7
20260505213009 2 107 6.4 9.7 0.00 0.15 0.15 80 1013.7
20260505212508 2 101 4.8 9.7 0.00 0.15 0.15 80 1013.7
20260505212008 2 109 4.8 9.7 0.00 0.15 0.15 80 1013.6
20260505211507 2 109 6.4 9.7 0.00 0.15 0.15 80 1013.7
20260505211010 2 101 4.8 6.4 0.00 0.15 0.15 81 1013.7
20260505210506 2 112 4.8 9.7 0.00 0.15 0.15 80 1013.7
20260505210008 2 97 3.2 9.7 0.00 0.15 0.15 80 1013.7
20260505205513 2 107 4.8 9.7 0.00 0.15 0.15 80 1013.6
20260505205106 2 109 4.8 9.7 0.00 0.15 0.15 80 1013.6
20260505204514 2 112 4.8 9.7 0.00 0.15 0.15 79 1013.6
20260505204106 2 107 4.8 9.7 0.00 0.15 0.15 79 1013.6
20260505203505 2 112 4.8 9.7 0.00 0.15 0.15 79 1013.6
20260505203005 2 88 4.8 6.4 0.00 0.15 0.15 79 1013.6
20260505202505 2 101 4.8 9.7 0.00 0.15 0.15 78 1013.6